Language: 


Des rapports , des résumés tant et plus, au choix de chacun....


Données Historiques de Météogheer
Journalier Rapport pour Février 7, 2018 Unitée:  Impériale    Métrique   Les deux
Suivant Jour »
Journalier Hebdomadaire Mensuel Annuel Sur mesure
  Max: Min: Moyenne:
Température: 35.8 °F 26.4 °F 31.1 °F
Point de rosée: 24.8 °F 15.8 °F 20.8 °F
Humidité: 82% 45% 68%
Vent: 9.2mph 0mph 5.2mph
Rafales: 11.2mph - -
Vent- - NE
Pression: 30.1 in 29.9 in -
Pluie: 0 in    
Historical Graphs
 
 
Données tabulaires pour Février 7, 2018
Heure Température Point de rosée Pression Vent Vent Rafales Humidité Pluie Taux (Horaire) Conditions
00:02 30.7 °F 24.8 °F 29.9 in NNE 5.4 mph 5.4 mph 81% 0 in
00:07 30.6 °F 23 °F 29.9 in NNE 5.4 mph 5.4 mph 81% 0 in
00:13 30.6 °F 23 °F 29.9 in NNE 5.4 mph 5.4 mph 81% 0 in
00:18 30.4 °F 23 °F 29.9 in ENE 6.5 mph 6.5 mph 80% 0 in
00:23 30.4 °F 23 °F 29.9 in NNE 7.4 mph 7.4 mph 80% 0 in
00:28 30.4 °F 23 °F 29.9 in NNE 7.4 mph 7.4 mph 80% 0 in
00:33 30.4 °F 23 °F 29.9 in NNE 8.1 mph 8.1 mph 81% 0 in
00:38 30.4 °F 23 °F 29.9 in NNE 8.1 mph 8.1 mph 81% 0 in
00:42 30.4 °F 23 °F 29.9 in NE 7.8 mph 8.1 mph 81% 0 in
00:48 30.4 °F 23 °F 29.9 in NE 7.8 mph 8.1 mph 81% 0 in
00:53 30.4 °F 23 °F 29.9 in NE 7.8 mph 7.8 mph 81% 0 in
00:58 30.4 °F 23 °F 29.9 in NE 7.8 mph 7.8 mph 81% 0 in
01:03 30.4 °F 23 °F 29.9 in NE 7.8 mph 7.8 mph 81% 0 in
01:08 30.4 °F 23 °F 29.9 in NE 7.8 mph 7.8 mph 81% 0 in
01:13 30.2 °F 23 °F 29.9 in North 7.8 mph 7.8 mph 81% 0 in
01:18 30.2 °F 23 °F 29.9 in North 7.8 mph 7.8 mph 81% 0 in
01:23 30.2 °F 24.8 °F 29.9 in North 7.8 mph 7.8 mph 82% 0 in
01:28 30.2 °F 24.8 °F 29.9 in North 7.8 mph 7.8 mph 82% 0 in
01:33 30.2 °F 24.8 °F 29.9 in North 7.8 mph 7.8 mph 82% 0 in
01:38 30.2 °F 24.8 °F 29.9 in North 7.8 mph 7.8 mph 82% 0 in
01:43 30.2 °F 24.8 °F 29.9 in North 7.8 mph 7.8 mph 82% 0 in
01:49 30.2 °F 24.8 °F 29.9 in North 7.8 mph 7.8 mph 82% 0 in
01:54 30.2 °F 24.8 °F 29.9 in NNE 8.7 mph 8.7 mph 82% 0 in
01:59 30.2 °F 24.8 °F 29.9 in NNE 8.7 mph 8.7 mph 82% 0 in
02:04 30.2 °F 23 °F 29.9 in NNE 7.4 mph 8.7 mph 80% 0 in
02:09 30.2 °F 23 °F 29.9 in NNE 7.8 mph 8.7 mph 80% 0 in
02:14 30.2 °F 23 °F 29.9 in NNE 7.8 mph 7.8 mph 79% 0 in
02:19 30.2 °F 23 °F 29.9 in NNE 7.8 mph 7.8 mph 78% 0 in
02:24 30.2 °F 23 °F 29.9 in NNE 7.8 mph 7.8 mph 78% 0 in
02:29 30.2 °F 23 °F 29.9 in NE 8.1 mph 8.1 mph 78% 0 in
02:34 30.2 °F 23 °F 29.9 in NE 8.1 mph 8.1 mph 78% 0 in
02:39 30.2 °F 23 °F 29.9 in NE 8.1 mph 8.1 mph 77% 0 in
02:44 30.2 °F 23 °F 29.9 in NE 8.1 mph 8.1 mph 77% 0 in
02:49 30.2 °F 23 °F 29.9 in NE 7.8 mph 8.1 mph 77% 0 in
02:54 30 °F 23 °F 29.9 in ENE 7.8 mph 9.6 mph 77% 0 in
02:59 30 °F 23 °F 29.9 in NNE 8.1 mph 9.6 mph 76% 0 in
03:04 30 °F 23 °F 29.9 in NNE 7.4 mph 9.2 mph 76% 0 in
03:09 30 °F 23 °F 29.9 in NE 8.1 mph 8.7 mph 75% 0 in
03:14 30 °F 23 °F 29.9 in NE 8.5 mph 8.7 mph 75% 0 in
03:19 30 °F 21.2 °F 29.9 in NNE 7.2 mph 11.2 mph 74% 0 in
03:24 29.8 °F 21.2 °F 29.9 in NE 5.8 mph 11.2 mph 74% 0 in
03:29 29.8 °F 21.2 °F 29.9 in NE 9.2 mph 9.2 mph 73% 0 in
03:34 29.8 °F 21.2 °F 29.9 in NE 2.9 mph 9.2 mph 72% 0 in
03:39 29.7 °F 21.2 °F 29.9 in NE 7.8 mph 9.2 mph 72% 0 in
03:44 29.7 °F 21.2 °F 29.9 in NNE 5.6 mph 8.5 mph 71% 0 in
03:49 29.5 °F 21.2 °F 29.9 in NNE 5.8 mph 7.8 mph 71% 0 in
03:55 29.5 °F 21.2 °F 29.9 in NE 5.8 mph 7.6 mph 72% 0 in
04:00 29.3 °F 21.2 °F 29.9 in NNE 5.6 mph 7.8 mph 72% 0 in
04:05 29.3 °F 21.2 °F 29.9 in NNE 6.5 mph 7.8 mph 72% 0 in
04:10 29.1 °F 21.2 °F 29.9 in NNE 5.6 mph 7.8 mph 73% 0 in
04:15 28.9 °F 21.2 °F 29.9 in NE 0.9 mph 6.5 mph 73% 0 in
04:20 28.6 °F 21.2 °F 29.9 in NE 4 mph 6.5 mph 74% 0 in
04:25 28.6 °F 21.2 °F 29.9 in North 2.9 mph 6.5 mph 75% 0 in
04:30 28.4 °F 21.2 °F 29.9 in North 4.3 mph 4.9 mph 76% 0 in
04:35 28.4 °F 21.2 °F 29.9 in NNE 4 mph 7.4 mph 77% 0 in
04:40 28.2 °F 21.2 °F 29.9 in NNE 4.3 mph 7.4 mph 77% 0 in
04:45 28.2 °F 21.2 °F 29.9 in NE 4 mph 6 mph 78% 0 in
04:50 28.2 °F 21.2 °F 29.9 in NNE 5.6 mph 6 mph 79% 0 in
04:55 28 °F 21.2 °F 29.9 in NNE 5.4 mph 6 mph 80% 0 in
05:00 28 °F 21.2 °F 29.9 in NNE 6 mph 7.8 mph 80% 0 in
05:05 28 °F 21.2 °F 29.9 in NNW 5.8 mph 7.8 mph 81% 0 in
05:10 28 °F 21.2 °F 29.9 in North 5.4 mph 7.8 mph 81% 0 in
05:15 28.2 °F 23 °F 29.9 in North 5.8 mph 7.8 mph 82% 0 in
05:20 28.2 °F 23 °F 29.9 in NE 6.5 mph 8.7 mph 82% 0 in
05:25 28.4 °F 23 °F 29.9 in NE 6.5 mph 8.7 mph 82% 0 in
05:30 28.6 °F 23 °F 29.9 in NE 6 mph 8.7 mph 80% 0 in
05:36 28.6 °F 23 °F 29.9 in NE 7.6 mph 9.6 mph 80% 0 in
05:41 28.6 °F 21.2 °F 29.9 in ENE 8.5 mph 9.6 mph 79% 0 in
05:46 28.6 °F 21.2 °F 29.9 in NNE 8.7 mph 8.9 mph 78% 0 in
05:51 28.8 °F 21.2 °F 29.9 in NNE 7.8 mph 8.9 mph 77% 0 in
05:56 28.6 °F 21.2 °F 29.9 in North 7.4 mph 8.7 mph 77% 0 in
06:01 28.8 °F 21.2 °F 29.9 in ENE 6.5 mph 8.7 mph 76% 0 in
06:06 28.6 °F 21.2 °F 29.9 in NE 8.1 mph 9.8 mph 75% 0 in
06:11 28.6 °F 21.2 °F 29.9 in NNE 7.4 mph 9.8 mph 75% 0 in
06:16 28.6 °F 21.2 °F 29.9 in NNE 5.6 mph 8.7 mph 75% 0 in
06:21 28.4 °F 21.2 °F 29.9 in NE 6.3 mph 8.9 mph 75% 0 in
06:26 28.4 °F 21.2 °F 29.9 in ENE 5.8 mph 8.9 mph 75% 0 in
06:31 28.2 °F 21.2 °F 29.9 in NE 7.4 mph 8.7 mph 75% 0 in
06:36 28.2 °F 21.2 °F 29.9 in NE 4 mph 8.9 mph 75% 0 in
06:41 27.9 °F 19.4 °F 29.9 in NE 6.9 mph 8.9 mph 75% 0 in
06:46 27.9 °F 19.4 °F 29.9 in NNE 8.5 mph 8.5 mph 75% 0 in
06:51 27.9 °F 19.4 °F 29.9 in NE 6 mph 8.5 mph 75% 0 in
06:56 27.7 °F 19.4 °F 29.9 in NE 6.9 mph 7.4 mph 75% 0 in
07:01 27.7 °F 19.4 °F 30 in NE 5.8 mph 7.4 mph 76% 0 in
07:06 27.5 °F 19.4 °F 30 in NE 5.6 mph 6.3 mph 76% 0 in
07:11 27.3 °F 19.4 °F 30 in NNE 4.9 mph 6.3 mph 76% 0 in
07:16 27.1 °F 19.4 °F 30 in NE 4.3 mph 6.5 mph 77% 0 in
07:21 27 °F 19.4 °F 30 in NE 6 mph 6.5 mph 77% 0 in
07:26 27 °F 19.4 °F 30 in NE 2.9 mph 6 mph 78% 0 in
07:32 27 °F 19.4 °F 30 in NE 3.1 mph 6.7 mph 78% 0 in
07:37 27 °F 19.4 °F 30 in NNE 1.6 mph 6.7 mph 79% 0 in
07:42 27 °F 19.4 °F 30 in North 2.5 mph 5.8 mph 79% 0 in
07:47 26.8 °F 19.4 °F 30 in NNE 2 mph 5.4 mph 79% 0 in
07:52 26.8 °F 19.4 °F 30 in North 2.5 mph 4.7 mph 79% 0 in
07:57 26.8 °F 19.4 °F 30 in North 1.1 mph 4.9 mph 79% 0 in
08:02 26.6 °F 21.2 °F 30 in North 3.8 mph 5.8 mph 80% 0 in
08:07 26.6 °F 21.2 °F 30 in NNE 2 mph 5.8 mph 80% 0 in
08:12 26.6 °F 21.2 °F 30 in NNW 4.9 mph 4.9 mph 80% 0 in
08:17 26.6 °F 21.2 °F 30 in North 4.3 mph 4.9 mph 80% 0 in
08:22 26.4 °F 21.2 °F 30 in NNE 3.8 mph 6 mph 80% 0 in
08:27 26.4 °F 21.2 °F 30 in Calm   6 mph 80% 0 in
08:32 26.6 °F 21.2 °F 30 in NNE 2.7 mph 5.4 mph 80% 0 in
08:37 26.6 °F 21.2 °F 30 in North 2.9 mph 5.4 mph 80% 0 in
08:42 26.6 °F 21.2 °F 30 in NE 2.7 mph 4.3 mph 80% 0 in
08:47 26.6 °F 21.2 °F 30 in NE 2.7 mph 3.6 mph 80% 0 in
08:52 26.8 °F 21.2 °F 30 in NNE 2.5 mph 2.7 mph 80% 0 in
08:57 27 °F 21.2 °F 30 in Calm   2.7 mph 81% 0 in
09:02 27.3 °F 21.2 °F 30 in North 1.1 mph 2.5 mph 82% 0 in
09:07 27.7 °F 21.2 °F 30 in NNE 4.9 mph 4.9 mph 82% 0 in
09:12 27.9 °F 21.2 °F 30 in NNE 4.9 mph 4.9 mph 82% 0 in
09:17 28 °F 23 °F 30 in NNE 4.9 mph 4.9 mph 82% 0 in
09:22 28.4 °F 21.2 °F 30 in NNE 4.9 mph 4.9 mph 81% 0 in
09:27 28.8 °F 23 °F 30 in NNE 4.9 mph 4.9 mph 80% 0 in
09:32 29.3 °F 23 °F 30 in NNE 4.9 mph 4.9 mph 80% 0 in
09:37 29.5 °F 23 °F 30 in NNE 4.9 mph 4.9 mph 79% 0 in
09:43 29.7 °F 23 °F 30 in NNE 4.9 mph 4.9 mph 78% 0 in
09:48 29.7 °F 21.2 °F 30 in NNE 4.9 mph 4.9 mph 76% 0 in
09:53 29.5 °F 21.2 °F 30 in NNE 4.9 mph 4.9 mph 76% 0 in
09:58 29.3 °F 21.2 °F 30 in NNE 4.9 mph 4.9 mph 75% 0 in
10:03 29.8 °F 21.2 °F 30 in NNE 4.9 mph 4.9 mph 76% 0 in
10:08 30 °F 23 °F 30 in NNE 4.9 mph 4.9 mph 75% 0 in
10:13 30.2 °F 23 °F 30 in NNE 4.9 mph 4.9 mph 75% 0 in
10:18 30.9 °F 21.2 °F 30 in NNE 4.9 mph 4.9 mph 73% 0 in
10:23 31.1 °F 21.2 °F 30 in NNE 4.9 mph 4.9 mph 72% 0 in
10:28 31.3 °F 23 °F 30 in NNE 4.9 mph 4.9 mph 72% 0 in
10:33 31.6 °F 21.2 °F 30 in NNE 5.4 mph 5.4 mph 70% 0 in
10:38 31.8 °F 21.2 °F 30 in NNE 5.4 mph 5.4 mph 69% 0 in
10:43 32.2 °F 23 °F 30 in NNE 5.4 mph 5.4 mph 68% 0 in
10:48 32.4 °F 23 °F 30 in NNE 5.4 mph 5.4 mph 67% 0 in
10:53 32.5 °F 23 °F 30 in NNE 5.4 mph 5.4 mph 65% 0 in
10:58 32.7 °F 21.2 °F 30 in NNE 5.4 mph 5.4 mph 62% 0 in
11:03 33.1 °F 21.2 °F 30 in NNE 5.4 mph 5.4 mph 60% 0 in
11:09 33.1 °F 21.2 °F 30 in NNE 5.4 mph 5.4 mph 58% 0 in
11:14 33.3 °F 19.4 °F 30 in NNE 5.4 mph 5.4 mph 57% 0 in
11:19 33.4 °F 19.4 °F 30 in NNE 5.4 mph 5.4 mph 55% 0 in
11:24 33.6 °F 19.4 °F 30 in NNE 5.4 mph 5.4 mph 56% 0 in
11:29 33.6 °F 19.4 °F 30 in NNE 5.4 mph 5.4 mph 55% 0 in
11:34 33.8 °F 19.4 °F 30 in NNE 5.4 mph 5.4 mph 54% 0 in
11:39 34.2 °F 19.4 °F 30 in NNE 5.4 mph 5.4 mph 54% 0 in
11:44 34.2 °F 19.4 °F 30 in NNE 5.4 mph 5.4 mph 52% 0 in
11:49 34.3 °F 19.4 °F 30 in NNE 5.4 mph 5.4 mph 53% 0 in
11:54 34.3 °F 19.4 °F 30 in NNE 5.4 mph 5.4 mph 52% 0 in
11:59 34.5 °F 19.4 °F 30 in NNE 5.4 mph 5.4 mph 52% 0 in
12:04 34.7 °F 19.4 °F 30 in NNE 5.4 mph 5.4 mph 50% 0 in
12:09 35.1 °F 19.4 °F 30 in NNE 5.4 mph 5.4 mph 50% 0 in
12:14 35.1 °F 19.4 °F 30 in NNE 5.4 mph 5.4 mph 50% 0 in
12:19 35.2 °F 17.6 °F 30 in NNE 5.4 mph 5.4 mph 47% 0 in
12:24 35.4 °F 15.8 °F 30 in NNE 5.4 mph 5.4 mph 45% 0 in
12:29 35.6 °F 17.6 °F 30 in NNE 5.4 mph 5.4 mph 46% 0 in
12:34 35.6 °F 17.6 °F 30 in NNE 5.4 mph 5.4 mph 46% 0 in
12:39 35.8 °F 17.6 °F 30 in NNE 5.4 mph 5.4 mph 46% 0 in
12:44 35.8 °F 17.6 °F 30 in NNE 5.4 mph 5.4 mph 47% 0 in
12:49 35.4 °F 17.6 °F 30 in NNE 5.4 mph 5.4 mph 48% 0 in
12:54 35.4 °F 17.6 °F 30 in NNE 5.4 mph 5.4 mph 47% 0 in
12:59 34.9 °F 17.6 °F 30 in NNE 5.4 mph 5.4 mph 47% 0 in
13:04 34.9 °F 17.6 °F 30 in NNE 5.4 mph 5.4 mph 47% 0 in
13:09 34.7 °F 17.6 °F 30 in NNE 5.4 mph 5.4 mph 48% 0 in
13:14 34.7 °F 17.6 °F 30 in NNE 5.4 mph 5.4 mph 48% 0 in
13:19 34.7 °F 17.6 °F 30 in NNE 5.4 mph 5.4 mph 48% 0 in
13:24 34.9 °F 17.6 °F 30 in NNE 5.4 mph 5.4 mph 49% 0 in
13:29 34.9 °F 17.6 °F 30.1 in NNE 5.4 mph 5.4 mph 47% 0 in
13:34 35.2 °F 17.6 °F 30.1 in NNE 5.4 mph 5.4 mph 48% 0 in
13:39 35.4 °F 17.6 °F 30.1 in NNE 5.4 mph 5.4 mph 48% 0 in
13:44 35.2 °F 17.6 °F 30 in NNE 5.4 mph 5.4 mph 48% 0 in
13:49 35.1 °F 17.6 °F 30 in NNE 5.4 mph 5.4 mph 47% 0 in
13:54 35.1 °F 17.6 °F 30 in NNE 5.4 mph 5.4 mph 47% 0 in
13:59 35.1 °F 17.6 °F 30.1 in NNE 5.4 mph 5.4 mph 47% 0 in
14:04 35.1 °F 17.6 °F 30.1 in NNE 5.4 mph 5.4 mph 48% 0 in
14:09 35.1 °F 17.6 °F 30.1 in NNE 5.4 mph 5.4 mph 48% 0 in
14:14 35.1 °F 15.8 °F 30.1 in NNE 5.4 mph 5.4 mph 46% 0 in
14:19 35.2 °F 15.8 °F 30.1 in NNE 5.4 mph 5.4 mph 45% 0 in
14:24 35.4 °F 17.6 °F 30.1 in NNE 5.4 mph 5.4 mph 46% 0 in
14:29 35.4 °F 17.6 °F 30.1 in NNE 5.4 mph 5.4 mph 48% 0 in
14:34 35.4 °F 17.6 °F 30.1 in NNE 5.4 mph 5.4 mph 48% 0 in
14:39 35.4 °F 17.6 °F 30.1 in NNE 5.4 mph 5.4 mph 48% 0 in
14:44 35.4 °F 17.6 °F 30 in NNE 5.4 mph 5.4 mph 48% 0 in
14:50 35.6 °F 19.4 °F 30 in NNE 5.4 mph 5.4 mph 50% 0 in
14:55 35.6 °F 19.4 °F 30 in NNE 5.4 mph 5.4 mph 50% 0 in
15:00 35.6 °F 19.4 °F 30.1 in NNE 5.4 mph 5.4 mph 50% 0 in
15:05 35.4 °F 19.4 °F 30.1 in NNE 5.4 mph 5.4 mph 51% 0 in
15:10 35.6 °F 19.4 °F 30.1 in NNE 5.4 mph 5.4 mph 50% 0 in
15:15 35.6 °F 19.4 °F 30.1 in NNE 5.4 mph 5.4 mph 50% 0 in
15:20 35.6 °F 19.4 °F 30.1 in NNE 5.4 mph 5.4 mph 50% 0 in
15:25 35.6 °F 19.4 °F 30.1 in NNE 5.4 mph 5.4 mph 50% 0 in
15:30 35.6 °F 19.4 °F 30.1 in NNE 5.4 mph 5.4 mph 50% 0 in
15:35 35.6 °F 19.4 °F 30.1 in NNE 5.4 mph 5.4 mph 51% 0 in
15:40 35.4 °F 19.4 °F 30.1 in NNE 5.4 mph 5.4 mph 50% 0 in
15:45 35.4 °F 19.4 °F 30 in NNE 5.4 mph 5.4 mph 50% 0 in
15:50 35.4 °F 19.4 °F 30 in NNE 5.4 mph 5.4 mph 50% 0 in
15:55 35.4 °F 19.4 °F 30 in NNE 5.4 mph 5.4 mph 51% 0 in
16:00 35.2 °F 19.4 °F 30 in NNE 5.4 mph 5.4 mph 51% 0 in
16:05 35.2 °F 19.4 °F 30 in NNE 5.4 mph 5.4 mph 51% 0 in
16:10 35.1 °F 19.4 °F 30 in NNE 5.4 mph 5.4 mph 50% 0 in
16:15 35.1 °F 19.4 °F 30 in NNE 5.4 mph 5.4 mph 51% 0 in
16:20 34.9 °F 19.4 °F 30 in NNE 5.4 mph 5.4 mph 52% 0 in
16:25 34.9 °F 19.4 °F 30 in NNE 5.4 mph 5.4 mph 53% 0 in
16:30 34.9 °F 19.4 °F 30.1 in NNE 5.4 mph 5.4 mph 53% 0 in
16:35 34.7 °F 19.4 °F 30.1 in NNE 5.4 mph 5.4 mph 53% 0 in
16:40 34.7 °F 19.4 °F 30.1 in NNE 5.4 mph 5.4 mph 53% 0 in
16:41 34.7 °F 21.2 °F 30.1 in NNE 5.4 mph 5.4 mph 54% 0 in
16:46 34.7 °F 21.2 °F 30 in NNE 5.4 mph 5.4 mph 54% 0 in
16:51 34.5 °F 19.4 °F 30 in NNE 5.4 mph 5.4 mph 55% 0 in
16:56 34.3 °F 19.4 °F 30 in NNE 5.4 mph 5.4 mph 55% 0 in
16:57 34.3 °F 19.4 °F 30 in NNE 5.4 mph 5.4 mph 55% 0 in
17:02 34.3 °F 19.4 °F 30.1 in NNE 5.4 mph 5.4 mph 55% 0 in
17:07 34.2 °F 21.2 °F 30.1 in NNE 5.4 mph 5.4 mph 56% 0 in
17:12 34.2 °F 21.2 °F 30.1 in NNE 5.4 mph 5.4 mph 56% 0 in
17:17 34 °F 21.2 °F 30 in NNE 5.4 mph 5.4 mph 57% 0 in
17:22 34 °F 21.2 °F 30 in NNE 5.4 mph 5.4 mph 57% 0 in
17:27 33.8 °F 21.2 °F 30 in NNE 5.4 mph 5.4 mph 58% 0 in
17:32 33.8 °F 21.2 °F 30.1 in NNE 5.4 mph 5.4 mph 58% 0 in
17:37 33.8 °F 21.2 °F 30.1 in NNE 5.4 mph 5.4 mph 58% 0 in
17:42 33.8 °F 21.2 °F 30.1 in NNE 5.4 mph 5.4 mph 58% 0 in
17:47 33.6 °F 21.2 °F 30.1 in NNE 5.4 mph 5.4 mph 59% 0 in
17:52 33.6 °F 21.2 °F 30.1 in NNE 5.4 mph 5.4 mph 59% 0 in
17:57 33.6 °F 21.2 °F 30.1 in NNE 5.4 mph 5.4 mph 59% 0 in
18:02 33.4 °F 21.2 °F 30.1 in NNE 5.4 mph 5.4 mph 60% 0 in
18:07 33.4 °F 21.2 °F 30.1 in NNE 5.4 mph 5.4 mph 60% 0 in
18:12 33.4 °F 21.2 °F 30.1 in NNE 5.4 mph 5.4 mph 60% 0 in
18:17 33.3 °F 21.2 °F 30.1 in NNE 5.4 mph 5.4 mph 61% 0 in
18:22 33.3 °F 21.2 °F 30.1 in NNE 5.4 mph 5.4 mph 61% 0 in
18:27 33.1 °F 21.2 °F 30.1 in NNE 5.4 mph 5.4 mph 61% 0 in
18:32 33.1 °F 21.2 °F 30.1 in NNE 5.4 mph 5.4 mph 62% 0 in
18:37 33.1 °F 21.2 °F 30.1 in NNE 5.4 mph 5.4 mph 62% 0 in
18:42 33.1 °F 21.2 °F 30.1 in NNE 5.4 mph 5.4 mph 62% 0 in
18:47 32.9 °F 21.2 °F 30.1 in NNE 5.4 mph 5.4 mph 62% 0 in
18:52 32.9 °F 21.2 °F 30.1 in NNE 5.4 mph 5.4 mph 62% 0 in
18:57 32.7 °F 21.2 °F 30.1 in NNE 5.4 mph 5.4 mph 63% 0 in
19:02 32.5 °F 21.2 °F 30.1 in NNE 5.4 mph 5.4 mph 63% 0 in
19:07 32.4 °F 21.2 °F 30.1 in NNE 5.4 mph 5.4 mph 64% 0 in
19:12 32.2 °F 21.2 °F 30.1 in NNE 5.4 mph 5.4 mph 64% 0 in
19:18 32 °F 21.2 °F 30.1 in NNE 5.4 mph 5.4 mph 65% 0 in
19:23 31.8 °F 21.2 °F 30.1 in NNE 5.4 mph 5.4 mph 66% 0 in
19:28 31.6 °F 21.2 °F 30.1 in NNE 5.4 mph 5.4 mph 66% 0 in
19:33 31.6 °F 21.2 °F 30.1 in NNE 5.4 mph 5.4 mph 66% 0 in
19:38 31.5 °F 21.2 °F 30.1 in NNE 5.4 mph 5.4 mph 67% 0 in
19:43 31.3 °F 21.2 °F 30.1 in NNE 5.4 mph 5.4 mph 67% 0 in
19:48 31.1 °F 19.4 °F 30.1 in NNE 5.4 mph 5.4 mph 67% 0 in
19:53 30.9 °F 19.4 °F 30.1 in NNE 5.4 mph 5.4 mph 67% 0 in
19:58 30.9 °F 19.4 °F 30.1 in NNE 5.4 mph 5.4 mph 67% 0 in
20:03 30.7 °F 21.2 °F 30.1 in NNE 5.4 mph 5.4 mph 68% 0 in
20:08 30.7 °F 21.2 °F 30.1 in NNE 5.4 mph 5.4 mph 68% 0 in
20:13 30.6 °F 19.4 °F 30.1 in NNE 5.4 mph 5.4 mph 68% 0 in
20:18 30.4 °F 19.4 °F 30.1 in NNE 5.4 mph 5.4 mph 68% 0 in
20:23 30.2 °F 19.4 °F 30.1 in NNE 5.4 mph 5.4 mph 68% 0 in
20:28 30 °F 19.4 °F 30.1 in NNE 5.4 mph 5.4 mph 68% 0 in
20:33 29.7 °F 19.4 °F 30.1 in NNE 5.4 mph 5.4 mph 68% 0 in
20:38 29.5 °F 19.4 °F 30.1 in NNE 5.4 mph 5.4 mph 68% 0 in
20:43 29.3 °F 19.4 °F 30.1 in NNE 5.4 mph 5.4 mph 69% 0 in
20:48 28.9 °F 19.4 °F 30.1 in NNE 5.4 mph 5.4 mph 69% 0 in
20:53 28.6 °F 19.4 °F 30.1 in NNE 5.4 mph 5.4 mph 70% 0 in
20:58 28.6 °F 19.4 °F 30.1 in NNE 5.4 mph 5.4 mph 71% 0 in
21:03 28.4 °F 19.4 °F 30.1 in NNE 5.4 mph 5.4 mph 72% 0 in
21:09 28.2 °F 19.4 °F 30.1 in NNE 5.4 mph 5.4 mph 73% 0 in
21:14 28 °F 19.4 °F 30.1 in NNE 5.4 mph 5.4 mph 73% 0 in
21:19 27.9 °F 19.4 °F 30.1 in NNE 5.4 mph 5.4 mph 74% 0 in
21:24 27.9 °F 19.4 °F 30.1 in NNE 5.4 mph 5.4 mph 74% 0 in
21:29 27.9 °F 19.4 °F 30.1 in NNE 5.4 mph 5.4 mph 75% 0 in
21:34 28 °F 21.2 °F 30.1 in NNE 5.4 mph 5.4 mph 76% 0 in
21:39 28 °F 21.2 °F 30.1 in NNE 5.4 mph 5.4 mph 76% 0 in
21:44 28 °F 21.2 °F 30.1 in NNE 5.4 mph 5.4 mph 77% 0 in
21:49 28.2 °F 21.2 °F 30.1 in NNE 5.4 mph 5.4 mph 77% 0 in
21:54 28.4 °F 21.2 °F 30.1 in NNE 5.4 mph 5.4 mph 78% 0 in
21:59 28.4 °F 21.2 °F 30.1 in NNE 5.4 mph 5.4 mph 78% 0 in
22:04 28.8 °F 21.2 °F 30.1 in NNE 5.4 mph 5.4 mph 78% 0 in
22:09 28.9 °F 21.2 °F 30.1 in NNE 5.4 mph 5.4 mph 78% 0 in
22:14 29.1 °F 21.2 °F 30.1 in NNE 5.4 mph 5.4 mph 78% 0 in
22:19 29.1 °F 23 °F 30.1 in NNE 5.4 mph 5.4 mph 79% 0 in
22:24 29.3 °F 23 °F 30.1 in NNE 5.4 mph 5.4 mph 79% 0 in
22:29 29.3 °F 23 °F 30.1 in NNE 5.4 mph 5.4 mph 80% 0 in
22:34 29.5 °F 23 °F 30.1 in Calm     80% 0 in
22:39 29.5 °F 23 °F 30.1 in Calm     80% 0 in
22:44 29.5 °F 23 °F 30.1 in Calm     80% 0 in
22:50 29.7 °F 23 °F 30.1 in Calm     80% 0 in
22:55 29.7 °F 23 °F 30.1 in Calm     81% 0 in
23:00 29.7 °F 23 °F 30.1 in Calm     81% 0 in
23:05 29.7 °F 23 °F 30.1 in Calm     82% 0 in
23:10 29.5 °F 23 °F 30.1 in Calm     82% 0 in
23:15 29.5 °F 23 °F 30.1 in Calm     82% 0 in
23:20 29.5 °F 23 °F 30.1 in Calm     82% 0 in
23:25 29.5 °F 23 °F 30.1 in Calm     82% 0 in
23:30 29.5 °F 23 °F 30.1 in Calm     81% 0 in
23:35 29.5 °F 23 °F 30.1 in Calm     81% 0 in
23:40 29.5 °F 23 °F 30.1 in Calm     81% 0 in
23:45 29.1 °F 23 °F 30.1 in Calm     81% 0 in
23:50 28.9 °F 23 °F 30.1 in Calm     81% 0 in
23:55 28.6 °F 23 °F 30.1 in Calm     81% 0 in
Données Historique de Météo Turbie

Mise a jour : 23/06/2018 11:45:12
Généré par Cumulus 1.9.4 (1099)